Regional Weather Roundup
Issued by NWS

Home | Current Version | Previous Version | Text Only | Print | Product List | Glossary On
Versions: 1 2 3 4 5 6 7 8 9 10 11 12 13 14 15 16 17 18 19 20 21 22 23 24 25 26 27 28 29 30 31 32 33 34 35 36 37 38 39 40 41 42 43 44 45 46 47 48 49 50
000
ASUS43 KTOP 300459
RWRKS

WEATHER ROUNDUP FOR KANSAS
NATIONAL WEATHER SERVICE GOODLAND KS
1200 AM CDT THU JUL 30 2015

NOTE:  "FAIR" INDICATES FEW OR NO CLOUDS BELOW 12,000 FEET WITH NO
SIGNIFICANT WEATHER AND/OR OBSTRUCTIONS TO VISIBILITY.

KSZ001>006-013>018-027>032-041>047-300600-
NORTHWEST KANSAS

CITY           SKY/WX    TMP DP  RH WIND       PRES   REMARKS
GOODLAND       PTCLDY    59  53  80 S7        30.29S
HAYS           CLEAR     70  55  60 E8        30.21S
HILL CITY      CLEAR     64  59  83 CALM      30.24R
RUSSELL        CLEAR     67  59  75 E7        30.20S
$$

KSZ061>065-074>080-084>089-300600-
SOUTHWEST KANSAS

CITY           SKY/WX    TMP DP  RH WIND       PRES   REMARKS
DODGE CITY     MOCLDY    70  66  87 E6        30.23R
ELKHART          N/A     69  63  81 E6          N/A
GARDEN CITY    CLEAR     68  64  87 NE7       30.23F
GREAT BEND     MOCLDY    73  66  78 E6        30.20S
LIBERAL        CLEAR     73  63  68 E8        30.23R
$$

KSZ066>073-081>083-090>101-300600-
SOUTHEAST KANSAS

CITY           SKY/WX    TMP DP  RH WIND       PRES   REMARKS
CHANUTE        CLOUDY    78  68  71 NE6       30.16R
COFFEYVILLE    MOCLDY    79  69  71 N8        30.13R
HUTCHINSON     CLEAR     73  68  84 E6        30.18S
MEDICINE LODGE   N/A     73  70  90 NE6       30.16S
PARSONS        MOCLDY    80  68  66 VRB6      30.15R
WICHITA INTL   FAIR      76  70  82 NE7       30.16S
WICHITA JABRA  CLEAR     73  70  90 NE7       30.17S
WINFIELD       PTCLDY    77  68  73 E12       30.15S
$$

KSZ007>012-019>026-033>040-048>060-102>105-300600-
NORTHEAST KANSAS

CITY           SKY/WX    TMP DP  RH WIND       PRES   REMARKS
CONCORDIA      CLEAR     66  62  87 CALM      30.20R
EMPORIA        PTCLDY    72  67  84 NE6       30.18S
LAWRENCE       CLEAR     68  65  90 NE5       30.17S
MANHATTAN      CLEAR     67  66  97 CALM      30.18R
OLATHE IND     PTCLDY    70  67  90 NE5       30.18S
OLATHE EXE     PTCLDY    71  66  84 N5        30.17S
SALINA         CLEAR     75  65  70 E6        30.18S
TOPEKA BILLARD CLEAR     70  68  93 CALM      30.17S
TOPEKA FORBES  CLEAR     73  67  81 NE5       30.17S
$$



USA.gov is the U.S. government's official web portal to all federal, state and local government web resources and services.